{"data":{"norad_id":54763,"intl_designator":"2022-175F","name":"STARLINK-5191","alt_names":[],"object_type":"PAYLOAD","status":"ACTIVE","operator":null,"country":"US","launch_date":"2022-12-17","launch_site_code":"AFETR","launch_vehicle":null,"mission":null,"orbit_class":"UNKNOWN","rcs_meters":null,"size_class":null,"mass_kg":null,"dimensions":null,"purposes":["comms"],"wikipedia_slug":null,"has_3d_model":false,"image_url":null,"decayed_at":null,"tle_current":{"epoch":"2026-09-20T06:11:02.201568Z","epoch_age_seconds":110810,"freshness":"FRESH","line1":"1 54763U 22175F   26263.25766437  .00001523  00000+0  57613-4 0  9997","line2":"2 54763  53.1614 247.1132 0001052  76.8921 283.2199 15.33555039209338","mean_motion":15.33555039,"eccentricity":0.0001052,"inclination_deg":53.1614,"raan_deg":247.1132,"arg_perigee_deg":76.8921,"mean_anomaly_deg":283.2199,"bstar":5.7613e-5,"rev_number":20933,"period_min":93.899466493162,"perigee_km":464.49587469609,"apogee_km":465.93571612424,"semimajor_km":6843.3527954102,"source":"CELESTRAK","updated_at":"2026-09-21T09:00:33.120680Z"}}}